CT2HBZ Weather Reports


time (UTC)temp
C
wind
direction
speed
KPH
gust
KPH
rain 1hr
cm
rain 24hr
cm
rain mn
cm
humidity
%
barometer
mb
20260507075435 16 328 4.8 8.0 0.00 0.00 0.00 58 1013.8
20260507074416 16 26 8.0 12.9 0.00 0.00 0.00 58 1013.8
20260507073415 15 22 1.6 6.4 0.00 0.00 0.00 60 1013.7
20260507072435 15 1 9.7 19.3 0.00 0.00 0.00 60 1013.6
20260507071415 15 38 3.2 6.4 0.00 0.00 0.00 66 1013.7
20260507070415 13 350 4.8 9.7 0.00 0.00 0.00 69 1013.7
20260507065415 13 309 6.4 16.1 0.00 0.00 0.00 70 1013.6
20260507064415 12 293 4.8 11.3 0.00 0.00 0.00 72 1013.5
20260507063436 12 305 6.4 14.5 0.00 0.00 0.00 74 1013.5
20260507062415 12 303 6.4 16.1 0.00 0.00 0.00 74 1013.5
20260507061415 12 248 6.4 9.7 0.00 0.00 0.00 74 1013.4
20260507060415 12 193 1.6 3.2 0.00 0.00 0.00 75 1013.3
20260507055416 12 272 3.2 9.7 0.00 0.00 0.00 76 1013.1
20260507054415 12 320 4.8 11.3 0.00 0.00 0.00 75 1013.0
20260507053416 12 283 6.4 9.7 0.00 0.00 0.00 75 1013.0
20260507052416 12 339 4.8 11.3 0.00 0.00 0.00 74 1012.8
20260507051416 12 326 11.3 17.7 0.00 0.00 0.00 74 1012.8
20260507050415 12 336 6.4 12.9 0.00 0.00 0.00 74 1012.8
20260507045415 12 340 6.4 12.9 0.00 0.00 0.00 74 1012.8
20260507044415 12 317 4.8 8.0 0.00 0.00 0.00 74 1012.8
20260507043415 12 322 4.8 8.0 0.00 0.00 0.00 74 1012.8
20260507042435 12 314 3.2 6.4 0.00 0.00 0.00 74 1013.0
20260507041415 12 237 3.2 6.4 0.00 0.00 0.00 73 1013.0
20260507040416 12 316 6.4 16.1 0.00 0.00 0.00 73 1013.1
20260507035435 12 325 6.4 9.7 0.00 0.00 0.00 73 1013.2
20260507034415 12 328 8.0 16.1 0.00 0.00 0.00 74 1013.3
20260507033416 12 278 3.2 9.7 0.00 0.00 0.00 73 1013.3
20260507032415 12 315 6.4 11.3 0.00 0.00 0.00 74 1013.4
20260507031435 12 292 4.8 11.3 0.00 0.00 0.00 73 1013.5
20260507030415 13 296 4.8 16.1 0.00 0.00 0.00 72 1013.5
20260507025415 13 290 8.0 16.1 0.00 0.00 0.00 73 1013.4
20260507024416 12 320 6.4 16.1 0.00 0.00 0.00 73 1013.3
20260507023415 12 320 8.0 22.5 0.00 0.00 0.00 74 1013.3
20260507022436 12 312 8.0 16.1 0.00 0.00 0.00 75 1013.4
20260507021415 12 316 3.2 12.9 0.00 0.00 0.00 75 1013.5
20260507020415 12 331 8.0 14.5 0.00 0.00 0.00 75 1013.6
20260507015415 12 315 4.8 12.9 0.00 0.00 0.00 75 1013.7
20260507014415 12 324 8.0 14.5 0.00 0.00 0.00 74 1013.8
20260507013415 13 330 8.0 12.9 0.00 0.00 0.00 72 1013.9
20260507012436 13 306 3.2 6.4 0.00 0.00 0.00 71 1014.0
20260507011436 13 290 3.2 8.0 0.00 0.00 0.00 71 1014.1
20260507010415 13 333 3.2 9.7 0.00 0.00 0.00 70 1014.0
20260507005435 13 298 3.2 6.4 0.00 0.00 0.00 70 1014.1
20260507004415 13 330 8.0 12.9 0.00 0.00 0.00 70 1014.0
20260507003435 13 312 6.4 14.5 0.00 0.00 0.00 70 1013.9
20260507002416 13 322 8.0 16.1 0.00 0.00 0.00 70 1014.0
20260507001415 13 314 6.4 19.3 0.00 0.00 0.00 69 1014.0
20260507000415 13 332 11.3 20.9 0.00 0.00 0.00 69 1014.1
20260506235416 13 319 9.7 20.9 0.00 0.00 0.00 69 1014.1
20260506234416 13 328 12.9 24.1 0.00 0.00 0.00 69 1014.1
20260506233415 13 331 16.1 24.1 0.00 0.00 0.00 69 1014.1
20260506232415 13 336 11.3 25.7 0.00 0.00 0.00 69 1014.2
20260506231415 13 324 14.5 24.1 0.00 0.00 0.00 68 1014.2
20260506230435 13 320 16.1 27.4 0.00 0.00 0.00 66 1014.1
20260506225416 14 330 14.5 24.1 0.00 0.00 0.00 66 1014.1
20260506224415 14 332 12.9 27.4 0.00 0.00 0.00 65 1014.2
20260506223415 14 335 17.7 29.0 0.00 0.00 0.00 64 1014.2
20260506222415 14 332 16.1 29.0 0.00 0.00 0.00 65 1014.3
20260506221415 14 337 22.5 38.6 0.00 0.00 0.00 65 1014.2
20260506220416 14 325 17.7 32.2 0.00 0.00 0.00 65 1014.4
20260506215415 14 331 16.1 30.6 0.00 0.00 0.00 66 1014.4
20260506214415 14 327 17.7 32.2 0.00 0.00 0.00 65 1014.6
20260506213415 14 321 12.9 30.6 0.00 0.00 0.00 66 1014.5
20260506212415 14 319 12.9 29.0 0.00 0.00 0.00 66 1014.5
20260506211436 15 319 14.5 24.1 0.00 0.00 0.00 66 1014.5
20260506210415 14 327 9.7 27.4 0.00 0.00 0.00 66 1014.4
20260506205416 15 324 14.5 25.7 0.00 0.00 0.00 65 1014.3
20260506204415 15 332 12.9 20.9 0.00 0.00 0.00 65 1014.3
20260506203415 15 332 16.1 27.4 0.00 0.00 0.00 64 1014.2
20260506202415 15 323 16.1 30.6 0.00 0.00 0.00 64 1014.3
20260506201415 15 318 12.9 27.4 0.00 0.00 0.00 62 1014.2
20260506200416 15 318 16.1 27.4 0.00 0.00 0.00 61 1014.2
20260506195415 15 323 12.9 29.0 0.00 0.00 0.00 59 1014.1
20260506194415 15 330 12.9 27.4 0.00 0.00 0.00 58 1014.1
20260506193435 16 321 11.3 29.0 0.00 0.00 0.00 56 1014.0
20260506192415 16 325 14.5 29.0 0.00 0.00 0.00 55 1013.9
20260506191416 16 326 14.5 24.1 0.00 0.00 0.00 54 1013.9
20260506190415 16 342 14.5 20.9 0.00 0.00 0.00 52 1013.9
20260506185415 17 333 16.1 29.0 0.00 0.00 0.00 49 1013.9
20260506184415 17 338 20.9 33.8 0.00 0.00 0.00 49 1013.8
20260506183416 17 344 11.3 27.4 0.00 0.00 0.00 49 1013.7
20260506182436 17 339 16.1 24.1 0.00 0.00 0.00 47 1013.8
20260506181415 18 341 16.1 29.0 0.00 0.00 0.00 45 1013.7
20260506180416 18 342 17.7 27.4 0.00 0.00 0.00 45 1013.9
20260506175415 18 339 11.3 24.1 0.00 0.00 0.00 45 1013.8
20260506174415 18 336 19.3 32.2 0.00 0.00 0.00 44 1014.0
20260506173435 18 350 17.7 33.8 0.00 0.00 0.00 43 1013.9
20260506172415 18 352 14.5 30.6 0.00 0.00 0.00 45 1014.1
20260506171415 18 337 14.5 25.7 0.00 0.00 0.00 44 1014.1
20260506170416 18 342 19.3 27.4 0.00 0.00 0.00 44 1014.2
20260506165537 9 0.0 0.0 0.00 0.00 0.00 22 1014.1
20260506165215 19 5 11.3 20.9 0.00 0.00 0.00 43 1014.2
20260506164215 19 347 12.9 24.1 0.00 0.00 0.00 44 1014.1
20260506163215 19 340 12.9 29.0 0.00 0.00 0.00 43 1014.2
20260506162215 19 353 19.3 30.6 0.00 0.00 0.00 44 1014.1
20260506161216 19 353 12.9 27.4 0.00 0.00 0.00 45 1014.1
20260506160215 20 333 12.9 24.1 0.00 0.00 0.00 44 1014.2
20260506155215 19 316 11.3 32.2 0.00 0.00 0.00 43 1014.3
20260506154236 20 342 12.9 29.0 0.00 0.00 0.00 43 1014.2
20260506153216 20 332 12.9 27.4 0.00 0.00 0.00 44 1014.3
20260506152215 20 346 22.5 33.8 0.00 0.00 0.00 43 1014.5
20260506151215 20 320 17.7 35.4 0.00 0.00 0.00 44 1014.5
20260506150215 20 356 11.3 22.5 0.00 0.00 0.00 43 1014.6
20260506145343 20 331 19.3 29.0 0.00 0.00 0.00 43 1015.0
20260506144215 20 336 4.8 20.9 0.00 0.00 0.00 41 1014.9
20260506143216 20 322 16.1 27.4 0.00 0.00 0.00 44 1015.0
20260506142216 20 333 12.9 27.4 0.00 0.00 0.00 42 1015.1
20260506141216 20 329 17.7 29.0 0.00 0.00 0.00 44 1015.2
20260506140215 20 337 17.7 32.2 0.00 0.00 0.00 44 1015.3
20260506135216 19 343 19.3 29.0 0.00 0.00 0.00 46 1015.4
20260506134215 19 339 8.0 22.5 0.00 0.00 0.00 45 1015.4
20260506133215 19 340 14.5 27.4 0.00 0.00 0.00 45 1015.7
20260506132237 20 341 17.7 22.5 0.00 0.00 0.00 46 1015.7
20260506131215 19 338 16.1 24.1 0.00 0.00 0.00 47 1015.9
20260506130215 19 337 12.9 22.5 0.00 0.00 0.00 47 1016.0
20260506125215 20 5 11.3 22.5 0.00 0.00 0.00 45 1016.0
20260506124215 18 324 11.3 29.0 0.00 0.00 0.00 47 1016.1
20260506123216 18 309 14.5 25.7 0.00 0.00 0.00 49 1016.3
20260506122216 18 332 12.9 22.5 0.00 0.00 0.00 48 1016.4
20260506121215 18 351 19.3 29.0 0.00 0.00 0.00 51 1016.5
20260506120216 18 322 14.5 27.4 0.00 0.00 0.00 50 1016.5
20260506115235 19 283 14.5 20.9 0.00 0.00 0.00 50 1016.6
20260506114235 18 325 9.7 20.9 0.00 0.00 0.00 52 1016.7
20260506113236 18 320 14.5 29.0 0.00 0.00 0.00 55 1016.8
20260506112215 18 330 17.7 27.4 0.00 0.00 0.00 49 1016.9
20260506111215 18 309 14.5 27.4 0.00 0.00 0.00 54 1016.8
20260506110216 18 314 12.9 27.4 0.00 0.00 0.00 52 1017.0
20260506105215 17 348 16.1 29.0 0.00 0.00 0.00 50 1017.0
20260506104215 18 336 14.5 29.0 0.00 0.00 0.00 52 1016.9
20260506103235 18 14 12.9 22.5 0.00 0.00 0.00 44 1017.0
20260506102215 18 338 14.5 24.1 0.00 0.00 0.00 45 1017.1
20260506101216 18 39 8.0 17.7 0.00 0.00 0.00 49 1017.1
20260506100216 17 352 12.9 19.3 0.00 0.00 0.00 50 1017.1
20260506095216 17 345 9.7 19.3 0.00 0.00 0.00 50 1017.2
20260506094215 17 354 9.7 27.4 0.00 0.00 0.00 50 1017.2
20260506093215 17 352 14.5 22.5 0.00 0.00 0.00 52 1017.2
20260506092236 16 18 6.4 22.5 0.00 0.00 0.00 54 1017.2
20260506091215 16 350 12.9 24.1 0.00 0.00 0.00 54 1017.2
20260506090216 16 17 12.9 25.7 0.00 0.00 0.00 55 1017.2
20260506085215 17 7 14.5 29.0 0.00 0.00 0.00 57 1017.2
20260506084216 16 2 14.5 24.1 0.00 0.00 0.00 59 1017.2
20260506083215 16 1 9.7 20.9 0.00 0.00 0.00 59 1017.2
20260506082215 16 351 12.9 22.5 0.00 0.00 0.00 60 1017.3
20260506081216 16 353 12.9 19.3 0.00 0.00 0.00 61 1017.3
20260506080216 16 360 9.7 19.3 0.00 0.00 0.00 63 1017.4